WetterOnline ( http://www.wetteronline.de )

Wetter aktuell Winterberg

Aktuelles Wetter: Kahler Asten (841m)

6-stündlich | Neueste Meldungen
Ortszeit Temperatur Wetter
Do, 21.02. 19:00 4.2° C wolkig
Do, 21.02. 13:00 4.3° C bedeckt
Do, 21.02. 7:00 1.4° C Nebel
Do, 21.02. 1:00 1.9° C wolkig
Mi, 20.02. 19:00 2.7° C bedeckt
Mi, 20.02. 13:00 2.9° C bedeckt
Mi, 20.02. 7:00 -0.1° C Nebel
Mi, 20.02. 1:00 0.8° C wolkig
Ortszeit Temperatur Wetter
Fr, 22.02. 0:30 4.3° C Sprühregen
Fr, 22.02. 0:20 4.3° C Sprühregen
Fr, 22.02. 0:10 4.3° C Sprühregen
Fr, 22.02. 0:00 4.3° C Sprühregen
Do, 21.02. 23:50 4.3° C Sprühregen
Do, 21.02. 23:40 4.3° C Sprühregen
Do, 21.02. 23:30 4.3° C Nebel
Do, 21.02. 23:00 4.2° C Nebel
Do, 21.02. 22:30 4.1° C Sprühregen
Do, 21.02. 22:00 4.0° C Nebel
Do, 21.02. 21:30 3.8° C Sprühregen
Ortszeit Relative Feuchte Sichtweite
Do, 21.02. 19:00 88% 6 km
Do, 21.02. 13:00 87% 5.0 km
Do, 21.02. 7:00 96% 0.3 km
Do, 21.02. 1:00 89% 8 km
Mi, 20.02. 19:00 83% 15 km
Mi, 20.02. 13:00 77% 10 km
Mi, 20.02. 7:00 96% 100 m
Mi, 20.02. 1:00 90% 12 km
Ortszeit Relative Feuchte Sichtweite
Fr, 22.02. 0:30 97% <100 m
Fr, 22.02. 0:20 97% -
Fr, 22.02. 0:10 97% -
Fr, 22.02. 0:00 97% <100 m
Do, 21.02. 23:50 97% -
Do, 21.02. 23:40 97% -
Do, 21.02. 23:30 97% <100 m
Do, 21.02. 23:00 97% <100 m
Do, 21.02. 22:30 97% <100 m
Do, 21.02. 22:00 97% <100 m
Do, 21.02. 21:30 96% <100 m
Ortszeit Niederschlagsmenge Niederschlagsart
Do, 21.02. 19:00 0.1 l/m2 in 12 Std. Regen
Do, 21.02. 13:00 0.1 l/m2 in 6 Std. Regen
Do, 21.02. 7:00 0.0 l/m2 in 12 Std. -
Do, 21.02. 1:00 0.0 l/m2 in 6 Std. -
Mi, 20.02. 19:00 0.0 l/m2 in 12 Std. -
Mi, 20.02. 13:00 0.0 l/m2 in 6 Std. -
Mi, 20.02. 7:00 0.0 l/m2 in 12 Std. -
Mi, 20.02. 1:00 0.0 l/m2 in 6 Std. -
Ortszeit Niederschlagsmenge Niederschlagsart
Fr, 22.02. 0:30 0.1 l/m2 in 1 Std. -
Fr, 22.02. 0:20 keine Meldung -
Fr, 22.02. 0:10 keine Meldung -
Fr, 22.02. 0:00 0.1 l/m2 in 1 Std. Sprühregen
Do, 21.02. 23:50 keine Meldung -
Do, 21.02. 23:40 keine Meldung -
Do, 21.02. 23:30 0.1 l/m2 in 1 Std. -
Do, 21.02. 23:00 0.1 l/m2 in 1 Std. Regen
Do, 21.02. 22:30 0.1 l/m2 in 1 Std. -
Do, 21.02. 22:00 0.1 l/m2 in 1 Std. Sprühregen
Do, 21.02. 21:30 0.1 l/m2 in 1 Std. -
Ortszeit Stärke Spitze Richtung
km/h Bft. km/h Grad Sektor
Do, 21.02. 19:00 28 4 46 270° W
Do, 21.02. 13:00 30 5 44 260° W
Do, 21.02. 7:00 22 4 47 270° W
Do, 21.02. 1:00 29 5 40 260° W
Mi, 20.02. 19:00 19 3 35 250° W
Mi, 20.02. 13:00 18 3 36 250° W
Mi, 20.02. 7:00 18 3 47 260° W
Mi, 20.02. 1:00 26 4 44 280° W
Ortszeit Stärke Spitze Richtung
km/h Bft. km/h Grad Sektor
Fr, 22.02. 0:30 26 4 39 290° W
Fr, 22.02. 0:20 26 4 - 290° W
Fr, 22.02. 0:10 26 4 - 290° W
Fr, 22.02. 0:00 24 4 43 290° W
Do, 21.02. 23:50 24 4 - 290° W
Do, 21.02. 23:40 22 4 - 290° W
Do, 21.02. 23:30 25 4 43 280° W
Do, 21.02. 23:00 25 4 43 280° W
Do, 21.02. 22:30 25 4 43 280° W
Do, 21.02. 22:00 24 4 41 270° W
Do, 21.02. 21:30 22 4 32 280° W
Ortszeit Untergrenze Bedeckung Gattung
total tief tief mittel hoch
Do, 21.02. 19:00 450 m 5/8 6/8 - - -
Do, 21.02. 13:00 180 m 8/8 8/8 - - -
Do, 21.02. 7:00 <30 m 5/8 0/8 - - -
Do, 21.02. 1:00 10500 m 7/8 0/8 - - -
Mi, 20.02. 19:00 1800 m 8/8 8/8 - - -
Mi, 20.02. 13:00 420 m 8/8 8/8 - - -
Mi, 20.02. 7:00 30 m 6/8 6/8 - - -
Mi, 20.02. 1:00 150 m 6/8 4/8 - - -
Ortszeit Bedeckungsgrad in Achtel und Wolkenuntergrenze
Fr, 22.02. 0:30 8(<30m)
Fr, 22.02. 0:20 8(<30m)
Fr, 22.02. 0:10 8(<30m)
Fr, 22.02. 0:00 8(30m)
Do, 21.02. 23:50 8(30m)
Do, 21.02. 23:40 8(30m)
Do, 21.02. 23:30 8(30m)
Do, 21.02. 23:00 9 9 9
Do, 21.02. 22:30 9 9 9
Do, 21.02. 22:00 9 9 9
Do, 21.02. 21:30 9 9 9
Ortszeit Stationsdruck (hPa) Tendenz (hPa in 3 Std.)
Do, 21.02. 19:00 926 + 0,6
Do, 21.02. 13:00 925 + 0,1
Do, 21.02. 7:00 924 + 0,1
Do, 21.02. 1:00 923 + 0,2
Mi, 20.02. 19:00 923 + 0,7
Mi, 20.02. 13:00 922 + 0,7
Mi, 20.02. 7:00 920 + 0,3
Mi, 20.02. 1:00 919 + 0,2
Ortszeit Stationsdruck (hPa) Tendenz (hPa in 3 Std.)
Fr, 22.02. 0:30 928 + 0,7
Fr, 22.02. 0:20 928 keine Meldung
Fr, 22.02. 0:10 928 keine Meldung
Fr, 22.02. 0:00 928 + 0,9
Do, 21.02. 23:50 928 keine Meldung
Do, 21.02. 23:40 928 keine Meldung
Do, 21.02. 23:30 928 + 1,0
Do, 21.02. 23:00 928 + 1,2
Do, 21.02. 22:30 927 + 1,0
Do, 21.02. 22:00 927 + 1,3
Do, 21.02. 21:30 927 + 1,0
Ortszeit Schneehöhe (cm)
Do, 21.02. 19:00 23
Do, 21.02. 13:00 26
Do, 21.02. 7:00 26
Do, 21.02. 1:00 27
Mi, 20.02. 19:00 27
Mi, 20.02. 13:00 27
Mi, 20.02. 7:00 27
Mi, 20.02. 1:00 27
Ortszeit Schneehöhe (cm)
Fr, 22.02. 0:30 22
Fr, 22.02. 0:20 22
Fr, 22.02. 0:10 22
Fr, 22.02. 0:00 22
Do, 21.02. 23:50 22
Do, 21.02. 23:40 22
Do, 21.02. 23:30 22
Do, 21.02. 23:00 22
Do, 21.02. 22:30 23
Do, 21.02. 22:00 23
Do, 21.02. 21:30 23
Link zu dieser Seite / Seite empfehlen

Das Wetter in ...